This is the latest recevied weather packets stored in our database for station/object AE0NK. If no packets are shown the sender has not sent any weather packets the latest 10 day(s).
| Time | Temp. | Humidity | Pressure | Rain* | Wind** | Luminosity | Snow |
|---|---|---|---|---|---|---|---|
| 1778073505 | 6.67° C | 55% | 1016.5 hPa | 0 mm | - | 134 W/m² | - |
| 1778073201 | 6.67° C | 56% | 1016.4 hPa | 0 mm | - | 107 W/m² | - |
| 1778072899 | 6.67° C | 54% | 1016.5 hPa | 0 mm | - | 125 W/m² | - |
| 1778072596 | 6.67° C | 56% | 1016.3 hPa | 0 mm | - | 127 W/m² | - |
| 1778072310 | 6.67° C | 56% | 1016.3 hPa | 0 mm | - | 121 W/m² | - |
| 1778072008 | 6.67° C | 56% | 1016.2 hPa | 0 mm | - | 111 W/m² | - |
| 1778071705 | 6.67° C | 58% | 1016.2 hPa | 0 mm | - | 114 W/m² | - |
| 1778071403 | 6.11° C | 56% | 1016.1 hPa | 0 mm | - | 105 W/m² | - |
| 1778071100 | 6.11° C | 56% | 1016 hPa | 0 mm | - | 116 W/m² | - |
| 1778070798 | 6.11° C | 56% | 1016 hPa | 0 mm | - | 95 W/m² | - |
| 1778070496 | 5.56° C | 59% | 1015.9 hPa | 0 mm | - | 69 W/m² | - |
| 1778070195 | 5.56° C | 57% | 1015.9 hPa | 0 mm | - | 62 W/m² | - |
| 1778069910 | 5.56° C | 58% | 1015.8 hPa | 0 mm | - | 63 W/m² | - |
| 1778069608 | 5.56° C | 62% | 1015.6 hPa | 0 mm | - | 70 W/m² | - |
| 1778069305 | 5° C | 59% | 1015.6 hPa | 0 mm | - | 65 W/m² | - |
| 1778069003 | 5° C | 61% | 1015.5 hPa | 0 mm | - | 53 W/m² | - |
| 1778068697 | 5° C | 61% | 1015.6 hPa | 0 mm | - | 39 W/m² | - |
| 1778068395 | 5° C | 63% | 1015.4 hPa | 0 mm | - | 28 W/m² | - |
| 1778068093 | 4.44° C | 62% | 1015.2 hPa | 0 mm | - | 26 W/m² | - |
| 1778067810 | 4.44° C | 64% | 1015.2 hPa | 0 mm | - | 21 W/m² | - |
| 1778067508 | 4.44° C | 65% | 1015 hPa | 0 mm | - | 18 W/m² | - |
| 1778067208 | 4.44° C | 65% | 1014.9 hPa | 0 mm | - | 16 W/m² | - |
| 1778066905 | 4.44° C | 65% | 1014.9 hPa | 0 mm | - | 14 W/m² | - |
| 1778066600 | 4.44° C | 66% | 1014.8 hPa | 0 mm | - | 11 W/m² | - |
| 1778066298 | 3.89° C | 68% | 1014.6 hPa | 0 mm | - | 9 W/m² | - |
* Rain latest hour (hover to see other rain measurements)
** Current wind speed in m/s (hover to see current wind gust speed)